Simultaneous Nadir Overpasses (SNOs) Predictions

Prediction of SNOs over PacNW region [( 10.00, 139.50) to ( 22.70, 165.60)] between AQUA and NPP Satellites:

Table of predicted SNOs over PacNW region for the next 30.0 days since TLE Epoch: 4/24/2021
Index Date (AQUA) Time (AQUA) AQUA Lat,Lon Date (NPP) Time (NPP) NPP Lat,Lon Distance(km) Time Diff (sec)
1 04/25/2021 15:59:13 22.63, 147.49 04/25/2021 16:01:00 23.29, 144.68 296.59 107
2 05/03/2021 15:09:44 22.61, 159.85 05/03/2021 15:10:12 23.19, 157.37 262.53 28
3 05/11/2021 15:59:08 22.59, 147.50 05/11/2021 16:00:53 23.19, 144.70 293.89 105
4 05/19/2021 15:09:36 22.62, 159.88 05/19/2021 15:10:03 23.18, 157.41 260.35 27
